Year,Month,Day,Hour,Minute,Value (Times are PST for temperature in C)
2018,09,27,00,00,11.00
2018,09,27,00,01,11.00
2018,09,27,00,02,11.00
2018,09,27,00,03,11.00
2018,09,27,00,04,11.00
2018,09,27,00,05,11.00
2018,09,27,00,06,11.00
2018,09,27,00,07,11.00
2018,09,27,00,08,10.90
2018,09,27,00,09,10.90
2018,09,27,00,10,10.90
2018,09,27,00,11,10.90
2018,09,27,00,12,10.90
2018,09,27,00,13,10.80
2018,09,27,00,14,10.80
2018,09,27,00,15,10.80
2018,09,27,00,16,10.80
2018,09,27,00,17,10.80
2018,09,27,00,18,10.80
2018,09,27,00,19,10.80
2018,09,27,00,20,10.80
2018,09,27,00,21,10.80
2018,09,27,00,22,10.80
2018,09,27,00,23,10.80
2018,09,27,00,24,10.80
2018,09,27,00,25,10.80
2018,09,27,00,26,10.80
2018,09,27,00,27,10.80
2018,09,27,00,28,10.80
2018,09,27,00,29,10.80
2018,09,27,00,30,10.80
2018,09,27,00,31,10.80
2018,09,27,00,32,10.80
2018,09,27,00,33,10.80
2018,09,27,00,34,10.80
2018,09,27,00,35,10.80
2018,09,27,00,36,10.80
2018,09,27,00,37,10.80
2018,09,27,00,38,10.80
2018,09,27,00,39,10.80
2018,09,27,00,40,10.80
2018,09,27,00,41,10.80
2018,09,27,00,42,10.80
2018,09,27,00,43,10.80
2018,09,27,00,44,10.80
2018,09,27,00,45,10.80
2018,09,27,00,46,10.80
2018,09,27,00,47,10.80
2018,09,27,00,48,10.80
2018,09,27,00,49,10.80
2018,09,27,00,50,10.80
2018,09,27,00,51,10.80
2018,09,27,00,52,10.80
2018,09,27,00,53,10.80
2018,09,27,00,54,10.80
2018,09,27,00,55,10.80
2018,09,27,00,56,10.90
2018,09,27,00,57,10.90
2018,09,27,00,58,10.90
2018,09,27,00,59,10.90
2018,09,27,01,00,10.90
2018,09,27,01,01,10.90
2018,09,27,01,02,10.90
2018,09,27,01,03,10.90
2018,09,27,01,04,10.80
2018,09,27,01,05,10.80
2018,09,27,01,06,10.80
2018,09,27,01,07,10.80
2018,09,27,01,08,10.80
2018,09,27,01,09,10.80
2018,09,27,01,10,10.80
2018,09,27,01,11,10.80
2018,09,27,01,12,10.80
2018,09,27,01,13,10.80
2018,09,27,01,14,10.90
2018,09,27,01,15,10.90
2018,09,27,01,16,10.90
2018,09,27,01,17,10.90
2018,09,27,01,18,11.00
2018,09,27,01,19,11.10
2018,09,27,01,20,11.20
2018,09,27,01,21,11.40
2018,09,27,01,22,11.50
2018,09,27,01,23,11.60
2018,09,27,01,24,11.70
2018,09,27,01,25,11.70
2018,09,27,01,26,11.70
2018,09,27,01,27,11.70
2018,09,27,01,28,11.70
2018,09,27,01,29,11.70
2018,09,27,01,30,11.70
2018,09,27,01,31,11.80
2018,09,27,01,32,11.70
2018,09,27,01,33,11.70
2018,09,27,01,34,11.70
2018,09,27,01,35,11.70
2018,09,27,01,36,11.70
2018,09,27,01,37,11.70
2018,09,27,01,38,11.60
2018,09,27,01,39,11.60
2018,09,27,01,40,11.60
2018,09,27,01,41,11.70
2018,09,27,01,42,11.70
2018,09,27,01,43,11.70
2018,09,27,01,44,11.60
2018,09,27,01,45,11.60
2018,09,27,01,46,11.60
2018,09,27,01,47,11.60
2018,09,27,01,48,11.50
2018,09,27,01,49,11.50
2018,09,27,01,50,11.40
2018,09,27,01,51,11.40
2018,09,27,01,52,11.40
2018,09,27,01,53,11.30
2018,09,27,01,54,11.30
2018,09,27,01,55,11.40
2018,09,27,01,56,11.40
2018,09,27,01,57,11.40
2018,09,27,01,58,11.50
2018,09,27,01,59,11.50
2018,09,27,02,00,11.50
2018,09,27,02,01,11.50
2018,09,27,02,02,11.50
2018,09,27,02,03,11.40
2018,09,27,02,04,11.40
2018,09,27,02,05,11.40
2018,09,27,02,06,11.40
2018,09,27,02,07,11.40
2018,09,27,02,08,11.40
2018,09,27,02,09,11.40
2018,09,27,02,10,11.40
2018,09,27,02,11,11.40
2018,09,27,02,12,11.40
2018,09,27,02,13,11.40
2018,09,27,02,14,11.40
2018,09,27,02,15,11.40
2018,09,27,02,16,11.40
2018,09,27,02,17,11.40
2018,09,27,02,18,11.40
2018,09,27,02,19,11.40
2018,09,27,02,20,11.40
2018,09,27,02,21,11.40
2018,09,27,02,22,11.30
2018,09,27,02,23,11.30
2018,09,27,02,24,11.30
2018,09,27,02,25,11.30
2018,09,27,02,26,11.20
2018,09,27,02,27,11.20
2018,09,27,02,28,11.20
2018,09,27,02,29,11.20
2018,09,27,02,30,11.20
2018,09,27,02,31,11.10
2018,09,27,02,32,11.10
2018,09,27,02,33,11.10
2018,09,27,02,34,11.10
2018,09,27,02,35,11.00
2018,09,27,02,36,11.00
2018,09,27,02,37,11.00
2018,09,27,02,38,10.90
2018,09,27,02,39,10.90
2018,09,27,02,40,10.90
2018,09,27,02,41,10.90
2018,09,27,02,42,10.90
2018,09,27,02,43,10.90
2018,09,27,02,44,10.90
2018,09,27,02,45,10.90
2018,09,27,02,46,10.90
2018,09,27,02,47,10.90
2018,09,27,02,48,10.80
2018,09,27,02,49,10.80
2018,09,27,02,50,10.80
2018,09,27,02,51,10.80
2018,09,27,02,52,10.90
2018,09,27,02,53,10.90
2018,09,27,02,54,10.90
2018,09,27,02,55,10.90
2018,09,27,02,56,10.90
2018,09,27,02,57,10.90
2018,09,27,02,58,10.90
2018,09,27,02,59,10.90
2018,09,27,03,00,10.90
2018,09,27,03,01,10.90
2018,09,27,03,02,10.90
2018,09,27,03,03,11.00
2018,09,27,03,04,11.00
2018,09,27,03,05,11.10
2018,09,27,03,06,11.10
2018,09,27,03,07,11.10
2018,09,27,03,08,11.10
2018,09,27,03,09,11.20
2018,09,27,03,10,11.40
2018,09,27,03,11,11.50
2018,09,27,03,12,11.70
2018,09,27,03,13,11.80
2018,09,27,03,14,11.80
2018,09,27,03,15,11.80
2018,09,27,03,16,11.80
2018,09,27,03,17,11.80
2018,09,27,03,18,11.80
2018,09,27,03,19,11.70
2018,09,27,03,20,11.70
2018,09,27,03,21,11.70
2018,09,27,03,22,11.70
2018,09,27,03,23,11.70
2018,09,27,03,24,11.60
2018,09,27,03,25,11.60
2018,09,27,03,26,11.50
2018,09,27,03,27,11.50
2018,09,27,03,28,11.50
2018,09,27,03,29,11.40
2018,09,27,03,30,11.40
2018,09,27,03,31,11.40
2018,09,27,03,32,11.30
2018,09,27,03,33,11.30
2018,09,27,03,34,11.30
2018,09,27,03,35,11.30
2018,09,27,03,36,11.30
2018,09,27,03,37,11.30
2018,09,27,03,38,11.30
2018,09,27,03,39,11.30
2018,09,27,03,40,11.30
2018,09,27,03,41,11.30
2018,09,27,03,42,11.30
2018,09,27,03,43,11.30
2018,09,27,03,44,11.30
2018,09,27,03,45,11.20
2018,09,27,03,46,11.20
2018,09,27,03,47,11.10
2018,09,27,03,48,11.10
2018,09,27,03,49,11.00
2018,09,27,03,50,11.00
2018,09,27,03,51,11.00
2018,09,27,03,52,11.00
2018,09,27,03,53,10.90
2018,09,27,03,54,10.90
2018,09,27,03,55,10.90
2018,09,27,03,56,10.90
2018,09,27,03,57,10.90
2018,09,27,03,58,10.80
2018,09,27,03,59,10.80
2018,09,27,04,00,10.70
2018,09,27,04,01,10.70
2018,09,27,04,02,10.70
2018,09,27,04,03,10.70
2018,09,27,04,04,10.80
2018,09,27,04,05,10.80
2018,09,27,04,06,10.80
2018,09,27,04,07,10.70
2018,09,27,04,08,10.70
2018,09,27,04,09,10.70
2018,09,27,04,10,10.70
2018,09,27,04,11,10.70
2018,09,27,04,12,10.60
2018,09,27,04,13,10.60
2018,09,27,04,14,10.60
2018,09,27,04,15,10.60
2018,09,27,04,16,10.60
2018,09,27,04,17,10.60
2018,09,27,04,18,10.60
2018,09,27,04,19,10.60
2018,09,27,04,20,10.60
2018,09,27,04,21,10.60
2018,09,27,04,22,10.60
2018,09,27,04,23,10.60
2018,09,27,04,24,10.60
2018,09,27,04,25,10.60
2018,09,27,04,26,10.60
2018,09,27,04,27,10.60
2018,09,27,04,28,10.60
2018,09,27,04,29,10.60
2018,09,27,04,30,10.60
2018,09,27,04,31,10.60
2018,09,27,04,32,10.60
2018,09,27,04,33,10.60
2018,09,27,04,34,10.60
2018,09,27,04,35,10.60
2018,09,27,04,36,10.70
2018,09,27,04,37,10.80
2018,09,27,04,38,10.90
2018,09,27,04,39,11.10
2018,09,27,04,40,11.20
2018,09,27,04,41,11.20
2018,09,27,04,42,11.30
2018,09,27,04,43,11.30
2018,09,27,04,44,11.50
2018,09,27,04,45,11.70
2018,09,27,04,46,11.90
2018,09,27,04,47,12.00
2018,09,27,04,48,12.10
2018,09,27,04,49,12.20
2018,09,27,04,50,12.20
2018,09,27,04,51,12.20
2018,09,27,04,52,12.20
2018,09,27,04,53,12.20
2018,09,27,04,54,12.20
2018,09,27,04,55,12.20
2018,09,27,04,56,12.20
2018,09,27,04,57,12.20
2018,09,27,04,58,12.20
2018,09,27,04,59,12.10
2018,09,27,05,00,12.10
2018,09,27,05,01,12.10
2018,09,27,05,02,12.00
2018,09,27,05,03,11.90
2018,09,27,05,04,11.90
2018,09,27,05,05,11.90
2018,09,27,05,06,11.90
2018,09,27,05,07,11.90
2018,09,27,05,08,12.00
2018,09,27,05,09,12.00
2018,09,27,05,10,12.00
2018,09,27,05,11,12.00
2018,09,27,05,12,12.00
2018,09,27,05,13,12.10
2018,09,27,05,14,12.10
2018,09,27,05,15,12.20
2018,09,27,05,16,12.20
2018,09,27,05,17,12.30
2018,09,27,05,18,12.40
2018,09,27,05,19,12.40
2018,09,27,05,20,12.50
2018,09,27,05,21,12.60
2018,09,27,05,22,12.70
2018,09,27,05,23,12.70
2018,09,27,05,24,12.70
2018,09,27,05,25,12.60
2018,09,27,05,26,12.60
2018,09,27,05,27,12.60
2018,09,27,05,28,12.60
2018,09,27,05,29,12.60
2018,09,27,05,30,12.60
2018,09,27,05,31,12.60
2018,09,27,05,32,12.60
2018,09,27,05,33,12.60
2018,09,27,05,34,12.50
2018,09,27,05,35,12.50
2018,09,27,05,36,12.40
2018,09,27,05,37,12.40
2018,09,27,05,38,12.50
2018,09,27,05,39,12.60
2018,09,27,05,40,12.60
2018,09,27,05,41,12.70
2018,09,27,05,42,12.80
2018,09,27,05,43,12.80
2018,09,27,05,44,12.80
2018,09,27,05,45,12.80
2018,09,27,05,46,12.90
2018,09,27,05,47,12.90
2018,09,27,05,48,12.90
2018,09,27,05,49,12.90
2018,09,27,05,50,12.90
2018,09,27,05,51,12.90
2018,09,27,05,52,13.00
2018,09,27,05,53,12.90
2018,09,27,05,54,12.90
2018,09,27,05,55,12.90
2018,09,27,05,56,12.90
2018,09,27,05,57,12.90
2018,09,27,05,58,12.90
2018,09,27,05,59,12.90
2018,09,27,06,00,13.00
2018,09,27,06,01,13.00
2018,09,27,06,02,13.10
2018,09,27,06,03,13.10
2018,09,27,06,04,13.10
2018,09,27,06,05,13.10
2018,09,27,06,06,13.10
2018,09,27,06,07,13.20
2018,09,27,06,08,13.20
2018,09,27,06,09,13.20
2018,09,27,06,10,13.30
2018,09,27,06,11,13.30
2018,09,27,06,12,13.30
2018,09,27,06,13,13.30
2018,09,27,06,14,13.30
2018,09,27,06,15,13.30
2018,09,27,06,16,13.30
2018,09,27,06,17,13.20
2018,09,27,06,18,13.20
2018,09,27,06,19,13.20
2018,09,27,06,20,13.20
2018,09,27,06,21,13.20
2018,09,27,06,22,13.20
2018,09,27,06,23,13.20
2018,09,27,06,24,13.20
2018,09,27,06,25,13.20
2018,09,27,06,26,13.20
2018,09,27,06,27,13.20
2018,09,27,06,28,13.20
2018,09,27,06,29,13.20
2018,09,27,06,30,13.30
2018,09,27,06,31,13.30
2018,09,27,06,32,13.30
2018,09,27,06,33,13.30
2018,09,27,06,34,13.30
2018,09,27,06,35,13.40
2018,09,27,06,36,13.40
2018,09,27,06,37,13.50
2018,09,27,06,38,13.50
2018,09,27,06,39,13.50
2018,09,27,06,40,13.50
2018,09,27,06,41,13.50
2018,09,27,06,42,13.50
2018,09,27,06,43,13.50
2018,09,27,06,44,13.50
2018,09,27,06,45,13.40
2018,09,27,06,46,13.40
2018,09,27,06,47,13.50
2018,09,27,06,48,13.50
2018,09,27,06,49,13.60
2018,09,27,06,50,13.60
2018,09,27,06,51,13.60
2018,09,27,06,52,13.50
2018,09,27,06,53,13.50
2018,09,27,06,54,13.40
2018,09,27,06,55,13.40
2018,09,27,06,56,13.30
2018,09,27,06,57,13.30
2018,09,27,06,58,13.30
2018,09,27,06,59,13.40
2018,09,27,07,00,13.40
2018,09,27,07,01,13.50
2018,09,27,07,02,13.50
2018,09,27,07,03,13.60
2018,09,27,07,04,13.60
2018,09,27,07,05,13.60
2018,09,27,07,06,13.60
2018,09,27,07,07,13.70
2018,09,27,07,08,13.60
2018,09,27,07,09,13.60
2018,09,27,07,10,13.60
2018,09,27,07,11,13.60
2018,09,27,07,12,13.70
2018,09,27,07,13,13.70
2018,09,27,07,14,13.70
2018,09,27,07,15,13.70
2018,09,27,07,16,13.70
2018,09,27,07,17,13.70
2018,09,27,07,18,13.70
2018,09,27,07,19,13.70
2018,09,27,07,20,13.60
2018,09,27,07,21,13.60
2018,09,27,07,22,13.50
2018,09,27,07,23,13.50
2018,09,27,07,24,13.50
2018,09,27,07,25,13.50
2018,09,27,07,26,13.40
2018,09,27,07,27,13.40
2018,09,27,07,28,13.40
2018,09,27,07,29,13.40
2018,09,27,07,30,13.40
2018,09,27,07,31,13.40
2018,09,27,07,32,13.40
2018,09,27,07,33,13.40
2018,09,27,07,34,13.40
2018,09,27,07,35,13.30
2018,09,27,07,36,13.30
2018,09,27,07,37,13.30
2018,09,27,07,38,13.20
2018,09,27,07,39,13.20
2018,09,27,07,40,13.20
2018,09,27,07,41,13.10
2018,09,27,07,42,13.10
2018,09,27,07,43,13.10
2018,09,27,07,44,13.10
2018,09,27,07,45,13.10
2018,09,27,07,46,13.10
2018,09,27,07,47,13.10
2018,09,27,07,48,13.10
2018,09,27,07,49,13.10
2018,09,27,07,50,13.20
2018,09,27,07,51,13.20
2018,09,27,07,52,13.20
2018,09,27,07,53,13.10
2018,09,27,07,54,13.10
2018,09,27,07,55,13.10
2018,09,27,07,56,13.10
2018,09,27,07,57,13.10
2018,09,27,07,58,13.10
2018,09,27,07,59,13.20
2018,09,27,08,00,13.20
2018,09,27,08,01,13.30
2018,09,27,08,02,13.40
2018,09,27,08,03,13.50
2018,09,27,08,04,13.50
2018,09,27,08,05,13.60
2018,09,27,08,06,13.70
2018,09,27,08,07,13.80
2018,09,27,08,08,13.80
2018,09,27,08,09,13.90
2018,09,27,08,10,14.00
2018,09,27,08,11,14.00
2018,09,27,08,12,14.00
2018,09,27,08,13,14.00
2018,09,27,08,14,14.10
2018,09,27,08,15,14.10
2018,09,27,08,16,14.10
2018,09,27,08,17,14.10
2018,09,27,08,18,14.20
2018,09,27,08,19,14.20
2018,09,27,08,20,14.20
2018,09,27,08,21,14.20
2018,09,27,08,22,14.30
2018,09,27,08,23,14.30
2018,09,27,08,24,14.40
2018,09,27,08,25,14.40
2018,09,27,08,26,14.40
2018,09,27,08,27,14.50
2018,09,27,08,28,14.60
2018,09,27,08,29,14.60
2018,09,27,08,30,14.70
2018,09,27,08,31,14.70
2018,09,27,08,32,14.80
2018,09,27,08,33,14.80
2018,09,27,08,34,14.90
2018,09,27,08,35,14.90
2018,09,27,08,36,14.90
2018,09,27,08,37,15.00
2018,09,27,08,38,15.00
2018,09,27,08,39,15.10
2018,09,27,08,40,15.10
2018,09,27,08,41,15.10
2018,09,27,08,42,15.20
2018,09,27,08,43,15.20
2018,09,27,08,44,15.20
2018,09,27,08,45,15.30
2018,09,27,08,46,15.30
2018,09,27,08,47,15.30
2018,09,27,08,48,15.30
2018,09,27,08,49,15.40
2018,09,27,08,50,15.40
2018,09,27,08,51,15.40
2018,09,27,08,52,15.50
2018,09,27,08,53,15.50
2018,09,27,08,54,15.60
2018,09,27,08,55,15.60
2018,09,27,08,56,15.60
2018,09,27,08,57,15.60
2018,09,27,08,58,15.70
2018,09,27,08,59,15.70
2018,09,27,09,00,15.70
2018,09,27,09,01,15.80
2018,09,27,09,02,15.80
2018,09,27,09,03,15.80
2018,09,27,09,04,15.90
2018,09,27,09,05,15.90
2018,09,27,09,06,15.90
2018,09,27,09,07,16.00
2018,09,27,09,08,16.00
2018,09,27,09,09,16.10
2018,09,27,09,10,16.10
2018,09,27,09,11,16.10
2018,09,27,09,12,16.10
2018,09,27,09,13,16.10
2018,09,27,09,14,16.10
2018,09,27,09,15,16.10
2018,09,27,09,16,16.10
2018,09,27,09,17,16.10
2018,09,27,09,18,16.00
2018,09,27,09,19,16.00
2018,09,27,09,20,16.00
2018,09,27,09,21,16.00
2018,09,27,09,22,16.00
2018,09,27,09,23,16.10
2018,09,27,09,24,16.10
2018,09,27,09,25,16.10
2018,09,27,09,26,16.10
2018,09,27,09,27,16.10
2018,09,27,09,28,16.10
2018,09,27,09,29,16.10
2018,09,27,09,30,16.10
2018,09,27,09,31,16.20
2018,09,27,09,32,16.20
2018,09,27,09,33,16.20
2018,09,27,09,34,16.30
2018,09,27,09,35,16.30
2018,09,27,09,36,16.30
2018,09,27,09,37,16.40
2018,09,27,09,38,16.40
2018,09,27,09,39,16.40
2018,09,27,09,40,16.50
2018,09,27,09,41,16.50
2018,09,27,09,42,16.60
2018,09,27,09,43,16.60
2018,09,27,09,44,16.60
2018,09,27,09,45,16.70
2018,09,27,09,46,16.70
2018,09,27,09,47,16.80
2018,09,27,09,48,16.80
2018,09,27,09,49,16.80
2018,09,27,09,50,16.80
2018,09,27,09,51,16.90
2018,09,27,09,52,16.90
2018,09,27,09,53,16.90
2018,09,27,09,54,16.90
2018,09,27,09,55,16.90
2018,09,27,09,56,16.90
2018,09,27,09,57,17.00
2018,09,27,09,58,17.00
2018,09,27,09,59,17.10
2018,09,27,10,00,17.10
2018,09,27,10,01,17.10
2018,09,27,10,02,17.10
2018,09,27,10,03,17.10
2018,09,27,10,04,17.10
2018,09,27,10,05,17.10
2018,09,27,10,06,17.20
2018,09,27,10,07,17.20
2018,09,27,10,08,17.20
2018,09,27,10,09,17.30
2018,09,27,10,10,17.30
2018,09,27,10,11,17.30
2018,09,27,10,12,17.30
2018,09,27,10,13,17.30
2018,09,27,10,14,17.40
2018,09,27,10,15,17.40
2018,09,27,10,16,17.40
2018,09,27,10,17,17.50
2018,09,27,10,18,17.50
2018,09,27,10,19,17.50
2018,09,27,10,20,17.60
2018,09,27,10,21,17.60
2018,09,27,10,22,17.70
2018,09,27,10,23,17.70
2018,09,27,10,24,17.80
2018,09,27,10,25,17.80
2018,09,27,10,26,17.80
2018,09,27,10,27,17.80
2018,09,27,10,28,17.80
2018,09,27,10,29,17.70
2018,09,27,10,30,17.70
2018,09,27,10,31,17.70
2018,09,27,10,32,17.70
2018,09,27,10,33,17.70
2018,09,27,10,34,17.70
2018,09,27,10,35,17.70
2018,09,27,10,36,17.80
2018,09,27,10,37,17.80
2018,09,27,10,38,17.80
2018,09,27,10,39,17.80
2018,09,27,10,40,17.90
2018,09,27,10,41,17.90
2018,09,27,10,42,17.90
2018,09,27,10,43,18.00
2018,09,27,10,44,18.00
2018,09,27,10,45,18.00
2018,09,27,10,46,18.00
2018,09,27,10,47,18.10
2018,09,27,10,48,18.10
2018,09,27,10,49,18.20
2018,09,27,10,50,18.20
2018,09,27,10,51,18.10
2018,09,27,10,52,18.10
2018,09,27,10,53,18.10
2018,09,27,10,54,18.20
2018,09,27,10,55,18.20
2018,09,27,10,56,18.20
2018,09,27,10,57,18.20
2018,09,27,10,58,18.20
2018,09,27,10,59,18.20
2018,09,27,11,00,18.20
2018,09,27,11,01,18.20
2018,09,27,11,02,18.20
2018,09,27,11,03,18.20
2018,09,27,11,04,18.20
2018,09,27,11,05,18.30
2018,09,27,11,06,18.30
2018,09,27,11,07,18.30
2018,09,27,11,08,18.30
2018,09,27,11,09,18.30
2018,09,27,11,10,18.40
2018,09,27,11,11,18.40
2018,09,27,11,12,18.40
2018,09,27,11,13,18.40
2018,09,27,11,14,18.50
2018,09,27,11,15,18.50
2018,09,27,11,16,18.60
2018,09,27,11,17,18.60
2018,09,27,11,18,18.70
2018,09,27,11,19,18.70
2018,09,27,11,20,18.80
2018,09,27,11,21,18.80
2018,09,27,11,22,18.90
2018,09,27,11,23,18.90
2018,09,27,11,24,19.00
2018,09,27,11,25,19.00
2018,09,27,11,26,19.00
2018,09,27,11,27,19.10
2018,09,27,11,28,19.10
2018,09,27,11,29,19.10
2018,09,27,11,30,19.00
2018,09,27,11,31,19.00
2018,09,27,11,32,19.00
2018,09,27,11,33,19.10
2018,09,27,11,34,19.10
2018,09,27,11,35,19.20
2018,09,27,11,36,19.20
2018,09,27,11,37,19.30
2018,09,27,11,38,19.30
2018,09,27,11,39,19.40
2018,09,27,11,40,19.50
2018,09,27,11,41,19.60
2018,09,27,11,42,19.70
2018,09,27,11,43,19.70
2018,09,27,11,44,19.80
2018,09,27,11,45,19.80
2018,09,27,11,46,19.90
2018,09,27,11,47,20.00
2018,09,27,11,48,20.10
2018,09,27,11,49,20.10
2018,09,27,11,50,20.20
2018,09,27,11,51,20.20
2018,09,27,11,52,20.30
2018,09,27,11,53,20.30
2018,09,27,11,54,20.30
2018,09,27,11,55,20.30
2018,09,27,11,56,20.20
2018,09,27,11,57,20.30
2018,09,27,11,58,20.30
2018,09,27,11,59,20.40
2018,09,27,12,00,20.40
2018,09,27,12,01,20.50
2018,09,27,12,02,20.50
2018,09,27,12,03,20.60
2018,09,27,12,04,20.60
2018,09,27,12,05,20.60
2018,09,27,12,06,20.60
2018,09,27,12,07,20.60
2018,09,27,12,08,20.60
2018,09,27,12,09,20.70
2018,09,27,12,10,20.80
2018,09,27,12,11,20.80
2018,09,27,12,12,20.80
2018,09,27,12,13,20.90
2018,09,27,12,14,20.90
2018,09,27,12,15,20.90
2018,09,27,12,16,20.80
2018,09,27,12,17,20.80
2018,09,27,12,18,20.80
2018,09,27,12,19,20.80
2018,09,27,12,20,20.90
2018,09,27,12,21,20.90
2018,09,27,12,22,21.00
2018,09,27,12,23,21.00
2018,09,27,12,24,21.10
2018,09,27,12,25,21.10
2018,09,27,12,26,21.00
2018,09,27,12,27,21.00
2018,09,27,12,28,21.00
2018,09,27,12,29,21.00
2018,09,27,12,30,21.00
2018,09,27,12,31,21.00
2018,09,27,12,32,20.90
2018,09,27,12,33,20.90
2018,09,27,12,34,20.90
2018,09,27,12,35,20.90
2018,09,27,12,36,20.80
2018,09,27,12,37,20.80
2018,09,27,12,38,20.80
2018,09,27,12,39,20.90
2018,09,27,12,40,20.90
2018,09,27,12,41,20.90
2018,09,27,12,42,20.90
2018,09,27,12,43,20.90
2018,09,27,12,44,20.80
2018,09,27,12,45,20.70
2018,09,27,12,46,20.60
2018,09,27,12,47,20.50
2018,09,27,12,48,20.40
2018,09,27,12,49,20.30
2018,09,27,12,50,20.30
2018,09,27,12,51,20.20
2018,09,27,12,52,20.20
2018,09,27,12,53,20.30
2018,09,27,12,54,20.30
2018,09,27,12,55,20.50
2018,09,27,12,56,20.50
2018,09,27,12,57,20.60
2018,09,27,12,58,20.60
2018,09,27,12,59,20.70
2018,09,27,13,00,20.70
2018,09,27,13,01,20.70
2018,09,27,13,02,20.70
2018,09,27,13,03,20.70
2018,09,27,13,04,20.80
2018,09,27,13,05,20.90
2018,09,27,13,06,20.90
2018,09,27,13,07,21.00
2018,09,27,13,08,20.90
2018,09,27,13,09,20.90
2018,09,27,13,10,20.80
2018,09,27,13,11,20.80
2018,09,27,13,12,20.80
2018,09,27,13,13,20.90
2018,09,27,13,14,20.90
2018,09,27,13,15,21.00
2018,09,27,13,16,21.10
2018,09,27,13,17,21.10
2018,09,27,13,18,21.10
2018,09,27,13,19,21.10
2018,09,27,13,20,21.10
2018,09,27,13,21,21.00
2018,09,27,13,22,21.00
2018,09,27,13,23,21.00
2018,09,27,13,24,21.00
2018,09,27,13,25,21.00
2018,09,27,13,26,21.00
2018,09,27,13,27,21.00
2018,09,27,13,28,21.10
2018,09,27,13,29,21.10
2018,09,27,13,30,21.20
2018,09,27,13,31,21.20
2018,09,27,13,32,21.30
2018,09,27,13,33,21.30
2018,09,27,13,34,21.40
2018,09,27,13,35,21.50
2018,09,27,13,36,21.50
2018,09,27,13,37,21.60
2018,09,27,13,38,21.60
2018,09,27,13,39,21.60
2018,09,27,13,40,21.70
2018,09,27,13,41,21.70
2018,09,27,13,42,21.80
2018,09,27,13,43,21.80
2018,09,27,13,44,21.80
2018,09,27,13,45,21.80
2018,09,27,13,46,21.80
2018,09,27,13,47,21.80
2018,09,27,13,48,21.80
2018,09,27,13,49,21.70
2018,09,27,13,50,21.60
2018,09,27,13,51,21.60
2018,09,27,13,52,21.50
2018,09,27,13,53,21.40
2018,09,27,13,54,21.40
2018,09,27,13,55,21.20
2018,09,27,13,56,20.90
2018,09,27,13,57,20.70
2018,09,27,13,58,20.60
2018,09,27,13,59,20.50
2018,09,27,14,00,20.40
2018,09,27,14,01,20.40
2018,09,27,14,02,20.40
2018,09,27,14,03,20.40
2018,09,27,14,04,20.40
2018,09,27,14,05,20.40
2018,09,27,14,06,20.40
2018,09,27,14,07,20.40
2018,09,27,14,08,20.50
2018,09,27,14,09,20.60
2018,09,27,14,10,20.60
2018,09,27,14,11,20.60
2018,09,27,14,12,20.70
2018,09,27,14,13,20.70
2018,09,27,14,14,20.70
2018,09,27,14,15,20.70
2018,09,27,14,16,20.70
2018,09,27,14,17,20.70
2018,09,27,14,18,20.70
2018,09,27,14,19,20.60
2018,09,27,14,20,20.60
2018,09,27,14,21,20.50
2018,09,27,14,22,20.30
2018,09,27,14,23,20.20
2018,09,27,14,24,20.10
2018,09,27,14,25,20.10
2018,09,27,14,26,20.20
2018,09,27,14,27,20.20
2018,09,27,14,28,20.20
2018,09,27,14,29,20.20
2018,09,27,14,30,20.10
2018,09,27,14,31,20.10
2018,09,27,14,32,20.10
2018,09,27,14,33,20.10
2018,09,27,14,34,20.10
2018,09,27,14,35,20.10
2018,09,27,14,36,20.20
2018,09,27,14,37,20.20
2018,09,27,14,38,20.20
2018,09,27,14,39,20.20
2018,09,27,14,40,20.20
2018,09,27,14,41,20.20
2018,09,27,14,42,20.20
2018,09,27,14,43,20.20
2018,09,27,14,44,20.20
2018,09,27,14,45,20.30
2018,09,27,14,46,20.40
2018,09,27,14,47,20.40
2018,09,27,14,48,20.50
2018,09,27,14,49,20.60
2018,09,27,14,50,20.60
2018,09,27,14,51,20.60
2018,09,27,14,52,20.60
2018,09,27,14,53,20.60
2018,09,27,14,54,20.60
2018,09,27,14,55,20.50
2018,09,27,14,56,20.50
2018,09,27,14,57,20.60
2018,09,27,14,58,20.70
2018,09,27,14,59,20.70
2018,09,27,15,00,20.80
2018,09,27,15,01,20.90
2018,09,27,15,02,20.90
2018,09,27,15,03,21.00
2018,09,27,15,04,21.10
2018,09,27,15,05,21.10
2018,09,27,15,06,21.10
2018,09,27,15,07,21.20
2018,09,27,15,08,21.20
2018,09,27,15,09,21.30
2018,09,27,15,10,21.30
2018,09,27,15,11,21.30
2018,09,27,15,12,21.40
2018,09,27,15,13,21.50
2018,09,27,15,14,21.60
2018,09,27,15,15,21.70
2018,09,27,15,16,21.70
2018,09,27,15,17,21.70
2018,09,27,15,18,21.70
2018,09,27,15,19,21.70
2018,09,27,15,20,21.70
2018,09,27,15,21,21.70
2018,09,27,15,22,21.80
2018,09,27,15,23,21.80
2018,09,27,15,24,21.90
2018,09,27,15,25,22.00
2018,09,27,15,26,22.10
2018,09,27,15,27,22.20
2018,09,27,15,28,22.30
2018,09,27,15,29,22.40
2018,09,27,15,30,22.40
2018,09,27,15,31,22.40
2018,09,27,15,32,22.40
2018,09,27,15,33,22.40
2018,09,27,15,34,22.40
2018,09,27,15,35,22.40
2018,09,27,15,36,22.40
2018,09,27,15,37,22.40
2018,09,27,15,38,22.40
2018,09,27,15,39,22.40
2018,09,27,15,40,22.40
2018,09,27,15,41,22.40
2018,09,27,15,42,22.40
2018,09,27,15,43,22.50
2018,09,27,15,44,22.50
2018,09,27,15,45,22.60
2018,09,27,15,46,22.70
2018,09,27,15,47,22.80
2018,09,27,15,48,22.90
2018,09,27,15,49,23.00
2018,09,27,15,50,23.00
2018,09,27,15,51,23.00
2018,09,27,15,52,23.00
2018,09,27,15,53,23.00
2018,09,27,15,54,23.10
2018,09,27,15,55,23.10
2018,09,27,15,56,23.10
2018,09,27,15,57,23.10
2018,09,27,15,58,23.10
2018,09,27,15,59,23.10
2018,09,27,16,00,23.10
2018,09,27,16,01,23.10
2018,09,27,16,02,23.00
2018,09,27,16,03,22.90
2018,09,27,16,04,22.70
2018,09,27,16,05,22.50
2018,09,27,16,06,22.40
2018,09,27,16,07,22.20
2018,09,27,16,08,22.00
2018,09,27,16,09,21.90
2018,09,27,16,10,21.80
2018,09,27,16,11,21.80
2018,09,27,16,12,21.80
2018,09,27,16,13,21.80
2018,09,27,16,14,21.70
2018,09,27,16,15,21.70
2018,09,27,16,16,21.70
2018,09,27,16,17,21.70
2018,09,27,16,18,21.70
2018,09,27,16,19,21.70
2018,09,27,16,20,21.70
2018,09,27,16,21,21.70
2018,09,27,16,22,21.60
2018,09,27,16,23,21.60
2018,09,27,16,24,21.60
2018,09,27,16,25,21.70
2018,09,27,16,26,21.80
2018,09,27,16,27,21.80
2018,09,27,16,28,21.80
2018,09,27,16,29,21.70
2018,09,27,16,30,21.70
2018,09,27,16,31,21.80
2018,09,27,16,32,21.80
2018,09,27,16,33,21.70
2018,09,27,16,34,21.70
2018,09,27,16,35,21.60
2018,09,27,16,36,21.60
2018,09,27,16,37,21.60
2018,09,27,16,38,21.60
2018,09,27,16,39,21.50
2018,09,27,16,40,21.50
2018,09,27,16,41,21.40
2018,09,27,16,42,21.40
2018,09,27,16,43,21.40
2018,09,27,16,44,21.40
2018,09,27,16,45,21.40
2018,09,27,16,46,21.40
2018,09,27,16,47,21.40
2018,09,27,16,48,21.40
2018,09,27,16,49,21.40
2018,09,27,16,50,21.40
2018,09,27,16,51,21.30
2018,09,27,16,52,21.40
2018,09,27,16,53,21.40
2018,09,27,16,54,21.40
2018,09,27,16,55,21.40
2018,09,27,16,56,21.50
2018,09,27,16,57,21.50
2018,09,27,16,58,21.60
2018,09,27,16,59,21.60
2018,09,27,17,00,21.60
2018,09,27,17,01,21.60
2018,09,27,17,02,21.50
2018,09,27,17,03,21.50
2018,09,27,17,04,21.50
2018,09,27,17,05,21.50
2018,09,27,17,06,21.50
2018,09,27,17,07,21.50
2018,09,27,17,08,21.60
2018,09,27,17,09,21.60
2018,09,27,17,10,21.60
2018,09,27,17,11,21.60
2018,09,27,17,12,21.60
2018,09,27,17,13,21.60
2018,09,27,17,14,21.60
2018,09,27,17,15,21.60
2018,09,27,17,16,21.70
2018,09,27,17,17,21.70
2018,09,27,17,18,21.70
2018,09,27,17,19,21.80